Вернуться в каталог

SL-16 DEB

АктивенPO
NORAD 43369·DEBRIS·🇷🇺 Russia

Запущен Dec 10, 2001 с Baikonur Cosmodrome

Loading…

Ближайшие Пролёты (ближайшие 24 часа)

TLE

УстаревающийSource: Space-Track

Эпоха: Sep 7, 2026, 13:22 UTC

1 43369U 01056N   26250.55701566  .00003186  00000-0  10979-2 0  9993
2 43369  99.2793 162.3674 0072406  75.9390  48.8313 14.35203837642866

Отслеживайте SL-16 DEB в реальном времени с AllMySat

Download on the App Store